Tracking 29892 objects as of 21-Nov-2024
HD Live streaming from Space Station
objects crossing your sky now

STARLINK-3573

Track STARLINK-3573 now!
10-day predictions
STARLINK-3573 is classified as:


NORAD ID: 51794
Int'l Code: 2022-017AC
Perigee: 545.9 km
Apogee: 547.8 km
Inclination: 53.2 °
Period: 95.4 minutes
Semi major axis: 6917 km
RCS: Unknown
Launch date: February 25, 2022
Source: United States (US)
Launch site: AIR FORCE WESTERN TEST RANGE (AFWTR)
Your satellite tracking list
Your tracking list is empty




NASA's NSSDC Master Catalog

Two Line Element Set (TLE):
1 51794U 22017AC  24324.28853674 -.00000218  00000-0  43901-5 0  9990
2 51794  53.2164 323.2802 0001378  85.6922 274.4228 15.08836893152154
Source of the keplerian elements: AFSPC